Regional Weather Roundup
Issued by NWS

Home | Current Version | Previous Version | Graphics & Text | Print | Product List | Glossary On
Versions: 1 2 3 4 5 6 7 8 9 10 11 12 13 14 15 16 17 18 19 20 21 22 23 24 25 26 27 28 29 30 31 32 33 34 35 36 37 38 39 40 41 42 43 44 45 46 47 48 49 50
000
ASUS43 KBIS 292310
RWRND

NORTH DAKOTA REGIONAL WEATHER ROUNDUP
NATIONAL WEATHER SERVICE BISMARCK ND
600 PM CDT MON AUG 29 2016

NOTE: "FAIR" INDICATES FEW OR NO CLOUDS BELOW 12,000 FEET WITH NO
SIGNIFICANT WEATHER AND/OR OBSTRUCTIONS TO VISIBILITY.


NDZ001>003-009>011-017-300000-
NORTHWEST NORTH DAKOTA

CITY           SKY/WX    TMP DP  RH WIND       PRES   REMARKS
WILLISTON      SUNNY     80  40  23 S7        30.23F
MINOT          SUNNY     79  41  25 CALM      30.22F
MINOT AFB      SUNNY     77  42  28 VRB3      30.21F
$$

NDZ018>021-031>035-040>046-300000-
SOUTHWEST NORTH DAKOTA

CITY           SKY/WX    TMP DP  RH WIND       PRES   REMARKS
BISMARCK       SUNNY     81  49  32 NE9       30.22S
DICKINSON      SUNNY     79  40  24 CALM      30.23F
GARRISON         N/A     80  44  27 VRB6      30.23F
HETTINGER ARPT SUNNY     82  48  30 NE13      30.25F
$$

NDZ004>008-012>016-024-026-027-054-300000-
NORTHEAST NORTH DAKOTA

CITY           SKY/WX    TMP DP  RH WIND       PRES   REMARKS
GRAND FORKS    SUNNY     80  51  36 N12       30.15R
GRND FRKS AFB  SUNNY     78  51  39 NW10      30.17R
DEVILS LAKE    SUNNY     75  47  36 NW12      30.21S
$$

NDZ022-023-025-028>030-036>039-047>053-300000-
SOUTHEAST NORTH DAKOTA

CITY           SKY/WX    TMP DP  RH WIND       PRES   REMARKS
FARGO          SUNNY     81  62  52 N10       30.15S
JAMESTOWN      SUNNY     78  53  41 N8        30.21R
$$





USA.gov is the U.S. government's official web portal to all federal, state and local government web resources and services.